Location: Bli��� Lhota
(48.7570°N, 14.0120°E)
Time: 15:49:39
(UTC+00:00)

Cosmos 2026 Rocket - Pass Details

Date: 18 September 2020
Orbit: 940 x 1000 km, 82.9° (Epoch: 23 October)

Event Time Altitude Azimuth Distance (km) Brightness Sun altitude
Rises 19:56:00 0° 348° (NNW) 3,715 7.7 -26.3°
Reaches altitude 10° 19:58:32 10° 346° (NNW) 2,768 7.0 -26.6°
Maximum altitude 20:04:50 67° 266° (W) 1,078 4.2 -27.5°
Enters shadow 20:06:54 43° 201° (SSW) 1,367 4.5 -27.7°
